Miscellaneous Local Product
Issued by NWS Hastings, NE

Home | Current Version | Previous Version | Graphics & Text | Print | Product List | Glossary On
Versions: 1 2 3 4 5 6 7 8 9 10 11 12 13 14 15 16 17 18 19 20 21 22 23 24 25 26 27 28 29 30 31 32 33 34 35 36 37 38 39 40 41 42 43 44 45 46 47 48 49 50
000
AXUS43 KGID 240002
MISGRI

GID CWA HOURLY WEATHER ROUNDUP
NATIONAL WEATHER SERVICE HASTINGS NE
600 PM CST SUN NOV 23 2014

NOTE: "FAIR" INDICATES FEW OR NO CLOUDS BELOW 12,000 FEET WITH NO
SIGNIFICANT WEATHER AND/OR OBSTRUCTIONS TO VISIBILITY.

...SOUTH CENTRAL NEBRASKA...

CITY           SKY/WX    TMP DP  RH WIND       PRES   REMARKS
GRAND ISLAND   NOT AVBL
HASTINGS       CLOUDY    41  26  55 N15       29.61R
KEARNEY        MOCLDY    45  19  36 NW24G35   29.66R
ORD            PTCLDY    41  21  44 NW18G28   29.61S
YORK           CLOUDY    41  32  70 N9        29.58R
AURORA         CLOUDY    40  31  69 N12       29.60R WCI  33
LEXINGTON      PTCLDY    44  19  36 N23G31    29.67R
HOLDREGE       MOCLDY    46  16  31 N28G40    29.64R
HEBRON         CLOUDY    42  32  69 N7        29.59R

...NEBRASKA PANHANDLE...

CITY           SKY/WX    TMP DP  RH WIND       PRES   REMARKS
CHADRON        CLOUDY    37  22  54 NW15G26   29.80R WCI  28
ALLIANCE       MOCLDY    35  17  47 NW17      29.78R WCI  25
SCOTTSBLUFF    MOCLDY    35  18  49 N13       29.83R WCI  26
SIDNEY         CLEAR     35  11  36 NW21      29.79R WCI  24

...WESTERN AND NORTH CENTRAL NEBRASKA...

CITY           SKY/WX    TMP DP  RH WIND       PRES   REMARKS
VALENTINE      MOCLDY    37  23  56 NW23G32   29.67R WCI  26
AINSWORTH      MOCLDY    38  25  59 NW24G35   29.67R WCI  26
ONEILL         PTCLDY    41  26  56 NW24G38   29.61R
BROKEN BOW     CLEAR     42  20  41 NW26G35   29.65R
IMPERIAL       CLEAR     38  11  32 N15       29.76R WCI  29
NORTH PLATTE   PTCLDY    40  14  34 NW10      29.70R WCI  33
MCCOOK         PTCLDY    43  11  27 NW18      29.70R

...EASTERN NEBRASKA...

CITY           SKY/WX    TMP DP  RH WIND       PRES   REMARKS
NORFOLK        MOCLDY    42  27  55 NW20G28   29.55F
SO SIOUX CITY  CLOUDY    42  30  62 NW15      29.53F
TEKAMAH        CLOUDY    44  30  57 N23G30    29.53S
COLUMBUS       CLOUDY    39  28  65 NW13      29.59R WCI  32
ALBION         CLOUDY    41  25  53 NW18      29.59R
OMAHA EPPLEY   CLOUDY    44  33  65 NW17G28   29.53R
OFFUTT AFB     CLOUDY    44  33  65 NW18G24   29.51R
MILLARD        CLOUDY    45  33  63 NW12G22   29.52S
LINCOLN        CLOUDY    44  30  57 N23       29.57R
NEBRASKA CITY  CLOUDY    42  35  75 N18G25    29.51R
BEATRICE       CLOUDY    43  32  66 N18       29.56R
FALLS CITY     CLOUDY    42  37  82 NW15G23   29.49R

...NORTHERN KANSAS...

CITY           SKY/WX    TMP DP  RH WIND       PRES   REMARKS
GOODLAND       CLEAR     39  10  30 N17       29.76R WCI  30
HILL CITY      CLOUDY    44  18  35 NW9       29.68R
NORTON         CLEAR     45  12  26 NW16      29.67R
PHILLIPSBURG   CLEAR     50  21  32 NW13      29.65R
SMITH CENTER   CLEAR     39  27  60 NW7       29.64R WCI  34
BELOIT         CLEAR     43  30  61 NW7       29.62R
HAYS           CLOUDY    45  21  39 N12       29.66R
RUSSELL        CLOUDY    43  28  55 NW12      29.63R
CONCORDIA      CLOUDY    41  35  79 NW8       29.60R
SALINA         CLOUDY    43  36  76 NW13      29.61R
TOPEKA         LGT RAIN  44  40  85 NW21G32   29.49R



USA.gov is the U.S. government's official web portal to all federal, state and local government web resources and services.